Weather History for KSUX - October, 2013

Change the Weather History Date:

Sunday, October 6, 2013

  Actual Average Record
Temperature  
Mean Temperature 49 °F 55 °F  
Max Temperature 57 °F 68 °F 91 °F (1963)
Min Temperature 40 °F 42 °F 22 °F (2000)
Degree Days  
Heating Degree Days 16 11  
Month to date heating degree days 39 60  
Since 1 July heating degree days 104 207  
Cooling Degree Days 0 1  
Month to date cooling degree days 2 6  
Year to date cooling degree days 955 867  
Moisture  
Dew Point 42 °F    
Average Humidity 73    
Maximum Humidity 96    
Minimum Humidity 50    
Precipitation  
Precipitation 0.08 in 0.08 in 2.02 in (1903)
Month to date precipitation 0.99 0.54  
Year to date precipitation 22.56 24.04  
Snow  
Snow 0.00 in 0.00 in T in (1952)
Month to date snowfall 0.0 0.0  
Since 1 July snowfall 0.0 0.0  
Since 1 September snowfall 0.0 0.0  
Snow Depth 0.00 in    
Sea Level Pressure  
Sea Level Pressure 29.85 in    
Wind  
Wind Speed 12 mph (NW)    
Max Wind Speed 24 mph    
Max Gust Speed 32 mph    
Visibility 9 miles    
Events Rain    
T = Trace of Precipitation, MM = Missing Value Source: NWS Daily Summary

Daily Weather History Graph

Daily Weather History Graph

Search for Another Location

Airport or City:

Trip Planner

Search our weather history database for the weather conditions in past years. The results will help you decide how hot, cold, wet, or windy it might be!

Date:

Astronomy

Oct. 06, 2013 Rise Set
Actual Time 7:28 AM CDT 6:57 PM CDT
Civil Twilight 7:00 AM CDT 7:25 PM CDT
Nautical Twilight 6:27 AM CDT 7:58 PM CDT
Astronomical Twilight 5:55 AM CDT 8:31 PM CDT
Moon 9:16 AM CDT (10/6) 7:54 PM CDT (10/6)
Length of Visible Light 12h 25m
Length of Day
11h 29m
Waxing Crescent, 3% of the Moon is Illuminated
Oct 6
Waxing Crescent
Oct 11
First Quarter
Oct 18
Full
Oct 26
Last Quarter
Nov 3
New

Hourly Weather History & Observations

Time (CDT) Temp. Windchill Dew Point Humidity Pressure Visibility Wind Dir Wind Speed Gust Speed Precip Events Conditions
12:16 AM 42.8 °F - 39.2 °F 87% 29.74 in 9.0 mi Calm Calm - 0.01 in Rain Light Rain
12:42 AM 42.8 °F - 39.2 °F 87% 29.75 in 8.0 mi Calm Calm - 0.02 in Rain Light Rain
12:52 AM 42.1 °F - 39.9 °F 92% 29.77 in 10.0 mi Calm Calm - 0.02 in Rain Light Rain
1:52 AM 43.0 °F 37.2 °F 41.0 °F 93% 29.79 in 10.0 mi NNW 10.4 mph - 0.02 in Rain Light Rain
2:03 AM 42.8 °F 37.5 °F 41.0 °F 93% 29.78 in 10.0 mi NNW 9.2 mph - 0.00 in Rain Light Rain
2:06 AM 42.8 °F 36.6 °F 41.0 °F 93% 29.78 in 10.0 mi NNW 11.5 mph - 0.00 in Rain Light Rain
2:36 AM 42.8 °F 37.5 °F 41.0 °F 93% 29.79 in 10.0 mi NNW 9.2 mph - 0.01 in Rain Light Rain
2:52 AM 43.0 °F 37.7 °F 41.0 °F 93% 29.80 in 10.0 mi NNW 9.2 mph - 0.01 in Rain Light Rain
3:52 AM 42.1 °F 37.1 °F 41.0 °F 96% 29.81 in 10.0 mi NNW 8.1 mph - 0.00 in   Mostly Cloudy
4:42 AM 44.6 °F 39.7 °F 42.8 °F 93% 29.79 in 10.0 mi NW 9.2 mph - 0.00 in Rain Light Rain
4:52 AM 44.1 °F 39.5 °F 42.1 °F 93% 29.80 in 10.0 mi NW 8.1 mph - 0.00 in Rain Light Rain
5:01 AM 44.6 °F 39.7 °F 42.8 °F 93% 29.79 in 10.0 mi NW 9.2 mph - 0.00 in Rain Light Rain
5:22 AM 44.6 °F 39.7 °F 42.8 °F 93% 29.78 in 10.0 mi WNW 9.2 mph - 0.00 in Rain Light Rain
5:29 AM 44.6 °F 39.7 °F 42.8 °F 93% 29.79 in 10.0 mi WNW 9.2 mph - 0.00 in   Overcast
5:36 AM 44.6 °F 39.7 °F 42.8 °F 93% 29.79 in 10.0 mi WNW 9.2 mph - 0.01 in   Overcast
5:49 AM 44.6 °F 38.4 °F 42.8 °F 93% 29.80 in 10.0 mi WNW 12.7 mph - 0.01 in   Overcast
5:52 AM 44.1 °F 38.6 °F 42.1 °F 93% 29.81 in 10.0 mi NW 10.4 mph - 0.01 in   Overcast
6:52 AM 45.0 °F 38.2 °F 43.0 °F 93% 29.83 in 10.0 mi NW 15.0 mph - 0.00 in Rain Light Rain
7:52 AM 46.0 °F 39.6 °F 44.1 °F 93% 29.83 in 10.0 mi NW 15.0 mph 24.2 mph 0.01 in   Overcast
8:38 AM 46.4 °F 40.4 °F 44.6 °F 93% 29.81 in 8.0 mi NW 13.8 mph 21.9 mph 0.00 in Rain Light Rain
8:52 AM 46.9 °F - 44.1 °F 90% 29.83 in 10.0 mi NW 12.7 mph 20.7 mph 0.01 in   Overcast
9:02 AM 46.4 °F 40.7 °F 44.6 °F 93% 29.81 in 10.0 mi WNW 12.7 mph - N/A   Overcast
9:52 AM 46.9 °F - 45.0 °F 93% 29.84 in 3.0 mi NW 17.3 mph 26.5 mph 0.00 in Rain Light Rain
10:52 AM 46.9 °F - 45.0 °F 93% 29.85 in 5.0 mi NW 18.4 mph 29.9 mph 0.00 in Rain Light Rain
11:01 AM 48.2 °F - 44.6 °F 87% 29.84 in 4.0 mi NW 18.4 mph 26.5 mph 0.00 in Rain Light Rain
11:15 AM 48.2 °F - 44.6 °F 87% 29.83 in 6.0 mi NW 21.9 mph 28.8 mph 0.00 in Rain Light Rain
11:23 AM 48.2 °F - 46.4 °F 93% 29.83 in 2.0 mi NW 15.0 mph 28.8 mph 0.00 in   Overcast
11:40 AM 48.2 °F - 44.6 °F 87% 29.84 in 10.0 mi NNW 23.0 mph 28.8 mph 0.00 in   Overcast
11:48 AM 48.2 °F - 44.6 °F 87% 29.83 in 10.0 mi NW 17.3 mph 28.8 mph 0.00 in   Overcast
11:52 AM 48.0 °F - 45.0 °F 89% 29.86 in 10.0 mi NNW 18.4 mph 28.8 mph 0.00 in   Overcast
12:09 PM 48.2 °F - 44.6 °F 87% 29.84 in 7.0 mi NW 17.3 mph 32.2 mph 0.00 in Rain Light Rain
12:52 PM 48.0 °F - 45.0 °F 89% 29.87 in 5.0 mi NNW 18.4 mph 24.2 mph 0.00 in Rain Light Rain
1:52 PM 48.0 °F - 45.0 °F 89% 29.87 in 3.0 mi NW 18.4 mph - 0.02 in Rain Light Rain
2:12 PM 46.4 °F 39.8 °F 44.6 °F 93% 29.85 in 8.0 mi NW 16.1 mph 26.5 mph 0.00 in Rain Light Rain
2:21 PM 46.4 °F 40.1 °F 44.6 °F 93% 29.85 in 9.0 mi NW 15.0 mph 24.2 mph 0.00 in   Overcast
2:52 PM 48.0 °F - 45.0 °F 89% 29.87 in 10.0 mi NW 19.6 mph 25.3 mph 0.00 in   Overcast
3:10 PM 48.2 °F - 44.6 °F 87% 29.86 in 10.0 mi NW 16.1 mph 25.3 mph N/A   Overcast
3:22 PM 48.2 °F - 44.6 °F 87% 29.87 in 10.0 mi NW 13.8 mph 21.9 mph N/A   Overcast
3:32 PM 48.2 °F - 44.6 °F 87% 29.87 in 10.0 mi NW 19.6 mph 24.2 mph N/A   Overcast
3:52 PM 48.9 °F - 45.0 °F 86% 29.89 in 10.0 mi NNW 20.7 mph 28.8 mph N/A   Overcast
4:52 PM 50.0 °F - 46.0 °F 86% 29.91 in 10.0 mi NW 5.8 mph - N/A   Overcast
5:52 PM 55.0 °F - 48.0 °F 77% 29.91 in 10.0 mi WNW 5.8 mph - N/A   Mostly Cloudy
6:52 PM 55.0 °F - 37.0 °F 51% 29.93 in 10.0 mi NW 13.8 mph - N/A   Clear
7:52 PM 53.1 °F - 35.1 °F 50% 29.96 in 10.0 mi NW 9.2 mph - N/A   Clear
8:52 PM 48.0 °F - 36.0 °F 63% 29.98 in 10.0 mi NW 6.9 mph - N/A   Clear
9:52 PM 45.0 °F 43.5 °F 36.0 °F 71% 30.00 in 10.0 mi West 3.5 mph - N/A   Clear
10:52 PM 43.0 °F 38.8 °F 36.0 °F 76% 30.01 in 10.0 mi NW 6.9 mph - N/A   Clear
11:52 PM 45.0 °F 42.6 °F 37.0 °F 74% 30.02 in 10.0 mi NNW 4.6 mph - N/A   Clear